Home » Events » Race 100 LOIJ

Race 100 LOIJ

Discord channel: race-100-loij

 

Recommended Scene Fliegerclub St. Johann Tirol Loij by Sven Schill

Open Time:  21 March 2021 00:00
Start Time:   21 March 2021 12:00
End Time:    27 March 2021 12:00
Length:                           100 km
Approximate Time:      00:38
Start Elevation:             7000
Checkpoint Elevation: 5000
Checkpoint Width:       1000

Tags:
Glider model: DG 808S
1. SDMagoo 00:30:00 199.9km/h 1000 March 23 2021 06:04
2. Swatius 00:31:55 187.9km/h 939 March 23 2021 13:36
3. lenidcamper 00:32:08 186.6km/h 933 March 25 2021 20:12
4. EMIL 00:32:24 185.2km/h 926 March 23 2021 12:40
5. 1L2P 00:32:30 184.5km/h 923 March 27 2021 15:35
6. mucjoki 00:33:37 178.5km/h 892 March 21 2021 18:25
7. Sipke 00:36:58 162.3km/h 811 March 26 2021 19:18
8. DerFoxY 00:39:38 151.3km/h 756 March 24 2021 21:13
9. Mattyo 00:43:08 139.1km/h 695 March 26 2021 11:05
TEST 00:09:39 620.9km/h May 11 2021 12:59
SDMagoo 00:27:27 218.5km/h April 6 2021 07:03
SDMagoo 00:27:40 216.8km/h April 6 2021 03:40
ANRI 00:28:01 214.1km/h June 16 2021 18:37
ANRI 00:28:25 211.1km/h April 8 2021 07:42
ANRI 00:28:51 207.9km/h March 25 2021 19:52
Shogunn 00:29:04 206.4km/h April 9 2021 17:31
ANRI 00:29:20 204.4km/h March 25 2021 20:53
Shogunn 00:29:44 201.7km/h April 22 2021 23:18
ANRI 00:29:48 201.3km/h March 23 2021 15:39
ANRI 00:30:06 199.3km/h March 22 2021 17:14
ANRI 00:30:41 195.5km/h March 21 2021 15:10
ANRI 00:30:48 194.8km/h March 22 2021 15:54
SDMagoo 00:31:02 193.3km/h March 23 2021 03:57
ANRI 00:31:25 191.0km/h March 21 2021 17:27
SDMagoo 00:31:50 188.4km/h March 22 2021 11:10
SDMagoo 00:31:53 188.1km/h March 22 2021 04:46
Shogunn 00:32:11 186.4km/h April 8 2021 21:14
ANRI 00:32:21 185.4km/h June 12 2021 14:00
SDMagoo 00:32:24 185.2km/h March 22 2021 03:46
Swatius 00:32:52 182.5km/h March 23 2021 05:52
SDMagoo 00:32:53 182.4km/h March 22 2021 02:14
Alex 00:33:13 180.6km/h March 25 2021 21:01
Swatius 00:33:39 178.3km/h March 21 2021 09:41
ANRI 00:33:51 177.2km/h March 22 2021 13:14
SDMagoo 00:33:54 177.0km/h March 22 2021 00:46
Emil 00:36:34 164.0km/h April 20 2021 13:11
lllypa 00:36:43 163.4km/h April 16 2021 18:15
ANRI 00:37:14 161.1km/h March 21 2021 11:13
EMIL 00:37:29 160.0km/h March 23 2021 09:54
1L2P 00:37:38 159.4km/h March 25 2021 17:17
SDMagoo 00:38:22 156.3km/h March 21 2021 07:45
lllypa 00:39:05 153.5km/h April 16 2021 16:21
ksiegert 00:39:16 152.8km/h May 13 2021 16:15
orthliu 00:39:20 152.5km/h April 10 2021 16:36
lllypa 00:39:37 151.4km/h April 15 2021 21:20
FoxY1327 00:40:04 149.7km/h March 25 2021 20:58
Shogunn 00:40:23 148.6km/h April 7 2021 10:16
Shogunn 00:45:28 131.9km/h April 6 2021 15:41
Shogunn 00:52:59 113.2km/h April 5 2021 23:35
Glider model: AS AS-33me
Clayton Kranz 00:30:57 193.9km/h June 15 2021 22:14
Clayton Kranz 00:31:25 190.9km/h June 7 2021 22:56
Glider model: SH Discus-2b
1. Jarosław 00:39:43 151.0km/h 1000 March 27 2021 01:20
2. Swatius 00:39:58 150.1km/h 993 March 26 2021 02:09
3. SPine 00:43:48 136.9km/h 906 March 22 2021 19:56
4. FoxY1327 00:45:29 131.9km/h 873 March 25 2021 19:39
Clayton Kranz 00:41:23 144.9km/h April 16 2021 14:49
Jarosław 00:43:41 137.3km/h March 22 2021 22:53
SPine 00:49:42 120.7km/h March 21 2021 19:26
Seltenreich 01:09:52 85.9km/h May 27 2021 15:41
Glider model: Ka 6E
1. Jarosław 00:59:09 101.4km/h 1000 March 23 2021 22:57

4 thoughts on “Race 100 LOIJ”

  1. Congrats ANRI! 🙂
    I spent 5 days solid and I couldn’t even beat my own time let alone close in on yours – an absolute perfect flight.

    Alex, could you check on 2nd places PO1 time in particular, it looks to be glitched out on PO1 at only 7 minutes for 45km?

    That is around a 208knot average speed for that leg…not possible unless you’re in a sustained dive from well over any altitude recorded for the flight……..best I ever did on this course to PO1 was around 11:30ish (130-140knots)and I was so low it was useless(Anri and I are both over 12 minutes I think).

    Cheers Magoo

Leave a Reply

Your email address will not be published.